TimeEST,TemperatureF,Dew PointF,Humidity,Sea Level PressureIn,VisibilityMPH,Wind Direction,Wind SpeedMPH,Gust SpeedMPH,PrecipitationIn,Events,Conditions,WindDirDegrees,DateUTC
12:53 AM,21.9,19.9,92,30.54,8.0,Calm,Calm,-,N/A,,Clear,0,2012-11-14 05:53:00
1:53 AM,21.0,18.0,88,30.54,8.0,Calm,Calm,-,N/A,,Clear,0,2012-11-14 06:53:00
2:53 AM,21.0,19.0,92,30.55,7.0,Calm,Calm,-,N/A,,Clear,0,2012-11-14 07:53:00
3:53 AM,19.9,17.1,89,30.56,8.0,Calm,Calm,-,N/A,,Clear,0,2012-11-14 08:53:00
4:53 AM,19.0,16.0,88,30.54,7.0,Calm,Calm,-,N/A,,Clear,0,2012-11-14 09:53:00
5:53 AM,21.0,18.0,88,30.56,7.0,Calm,Calm,-,N/A,,Clear,0,2012-11-14 10:53:00
6:53 AM,21.0,19.0,92,30.57,7.0,Calm,Calm,-,N/A,,Clear,0,2012-11-14 11:53:00
7:53 AM,21.0,19.0,92,30.58,5.0,Calm,Calm,-,N/A,,Clear,0,2012-11-14 12:53:00
8:53 AM,30.9,25.0,79,30.58,8.0,ENE,5.8,-,N/A,,Clear,60,2012-11-14 13:53:00
9:53 AM,35.1,26.1,70,30.57,10.0,ENE,10.4,-,N/A,,Clear,70,2012-11-14 14:53:00
10:53 AM,39.9,26.1,58,30.56,10.0,East,9.2,-,N/A,,Clear,100,2012-11-14 15:53:00
11:53 AM,41.0,25.0,53,30.54,10.0,East,8.1,-,N/A,,Clear,90,2012-11-14 16:53:00
12:53 PM,42.1,25.0,51,30.52,10.0,East,9.2,-,N/A,,Clear,90,2012-11-14 17:53:00
1:53 PM,43.0,25.0,49,30.50,10.0,ENE,4.6,-,N/A,,Clear,60,2012-11-14 18:53:00
2:53 PM,42.1,26.1,53,30.47,10.0,NE,8.1,-,N/A,,Clear,40,2012-11-14 19:53:00
3:53 PM,43.0,27.0,53,30.45,10.0,ENE,9.2,-,N/A,,Clear,70,2012-11-14 20:53:00
4:53 PM,39.9,28.0,63,30.45,10.0,ENE,6.9,-,N/A,,Clear,60,2012-11-14 21:53:00
5:53 PM,34.0,28.0,79,30.45,10.0,ENE,4.6,-,N/A,,Clear,60,2012-11-14 22:53:00
6:53 PM,37.9,28.0,68,30.45,10.0,East,6.9,-,N/A,,Clear,80,2012-11-14 23:53:00
7:53 PM,37.0,28.0,70,30.45,10.0,Calm,Calm,-,N/A,,Clear,0,2012-11-15 00:53:00
8:53 PM,30.9,26.1,82,30.44,9.0,Calm,Calm,-,N/A,,Clear,0,2012-11-15 01:53:00
9:53 PM,28.0,24.1,85,30.44,7.0,Calm,Calm,-,N/A,,Clear,0,2012-11-15 02:53:00
10:53 PM,26.1,24.1,92,30.43,7.0,Calm,Calm,-,N/A,,Clear,0,2012-11-15 03:53:00
11:53 PM,26.1,24.1,92,30.42,7.0,Calm,Calm,-,N/A,,Clear,0,2012-11-15 04:53:00